Location: Recife
(8.0585°S, 34.8848°W)
Time: 21:25:11
(UTC-03:00)

Explorer 11/Cluster Stage 4 - Pass Details

Date: 22 April 2026
Orbit: 463 x 1174 km, 28.8° (Epoch: 16 May)

Event Time Altitude Azimuth Distance (km) Brightness Sun altitude
Rises 04:03:36 0° 263° (W) 2,495 - -19.8°
Reaches altitude 10° 04:06:02 10° 279° (W) 1,657 - -19.2°
Exits shadow 04:08:40 22° 324° (NW) 1,161 7.2 -18.6°
Maximum altitude 04:08:59 22° 332° (NNW) 1,161 7.3 -18.5°
Drops below altitude 10° 04:12:14 10° 23° (NNE) 1,834 8.9 -17.7°
Sets 04:15:06 0° 38° (NE) 2,850 10.2 -17.0°
